Year,Month,Day,Hour,Minute,Value (Times are PST for temperature in C)
2006,08,06,00,00,16.60
2006,08,06,00,01,16.60
2006,08,06,00,02,16.60
2006,08,06,00,03,16.60
2006,08,06,00,04,16.40
2006,08,06,00,05,16.40
2006,08,06,00,06,16.40
2006,08,06,00,07,16.40
2006,08,06,00,08,16.40
2006,08,06,00,09,16.40
2006,08,06,00,10,16.40
2006,08,06,00,11,16.40
2006,08,06,00,12,16.40
2006,08,06,00,13,16.30
2006,08,06,00,14,16.30
2006,08,06,00,15,16.30
2006,08,06,00,16,16.30
2006,08,06,00,17,16.30
2006,08,06,00,18,16.30
2006,08,06,00,19,16.20
2006,08,06,00,20,16.20
2006,08,06,00,21,16.20
2006,08,06,00,22,16.30
2006,08,06,00,23,16.30
2006,08,06,00,24,16.30
2006,08,06,00,25,16.30
2006,08,06,00,26,16.30
2006,08,06,00,27,16.20
2006,08,06,00,28,16.20
2006,08,06,00,29,16.20
2006,08,06,00,30,16.20
2006,08,06,00,31,16.10
2006,08,06,00,32,16.10
2006,08,06,00,33,16.10
2006,08,06,00,34,16.10
2006,08,06,00,35,16.10
2006,08,06,00,36,16.10
2006,08,06,00,37,16.10
2006,08,06,00,38,16.00
2006,08,06,00,39,15.90
2006,08,06,00,40,15.90
2006,08,06,00,41,15.90
2006,08,06,00,42,15.80
2006,08,06,00,43,15.80
2006,08,06,00,44,15.80
2006,08,06,00,45,15.80
2006,08,06,00,46,15.80
2006,08,06,00,47,15.80
2006,08,06,00,48,15.80
2006,08,06,00,49,15.80
2006,08,06,00,50,15.70
2006,08,06,00,51,15.70
2006,08,06,00,52,15.70
2006,08,06,00,53,15.60
2006,08,06,00,54,15.60
2006,08,06,00,55,15.60
2006,08,06,00,56,15.50
2006,08,06,00,57,15.50
2006,08,06,00,58,15.40
2006,08,06,00,59,15.40
2006,08,06,01,00,15.30
2006,08,06,01,01,15.30
2006,08,06,01,02,15.30
2006,08,06,01,03,15.20
2006,08,06,01,04,15.20
2006,08,06,01,05,15.10
2006,08,06,01,06,15.10
2006,08,06,01,07,15.10
2006,08,06,01,08,15.00
2006,08,06,01,09,15.00
2006,08,06,01,10,14.90
2006,08,06,01,11,14.90
2006,08,06,01,12,14.90
2006,08,06,01,13,14.80
2006,08,06,01,14,14.80
2006,08,06,01,15,14.80
2006,08,06,01,16,14.80
2006,08,06,01,17,14.80
2006,08,06,01,18,14.70
2006,08,06,01,19,14.70
2006,08,06,01,20,14.70
2006,08,06,01,21,14.70
2006,08,06,01,22,14.60
2006,08,06,01,23,14.60
2006,08,06,01,24,14.60
2006,08,06,01,25,14.60
2006,08,06,01,26,14.60
2006,08,06,01,27,14.60
2006,08,06,01,28,14.60
2006,08,06,01,29,14.60
2006,08,06,01,30,14.60
2006,08,06,01,31,14.60
2006,08,06,01,32,14.60
2006,08,06,01,33,14.60
2006,08,06,01,34,14.60
2006,08,06,01,35,14.60
2006,08,06,01,36,14.60
2006,08,06,01,37,14.60
2006,08,06,01,38,14.60
2006,08,06,01,39,14.60
2006,08,06,01,40,14.60
2006,08,06,01,41,14.50
2006,08,06,01,42,14.50
2006,08,06,01,43,14.50
2006,08,06,01,44,14.50
2006,08,06,01,45,14.50
2006,08,06,01,46,14.50
2006,08,06,01,47,14.40
2006,08,06,01,48,14.40
2006,08,06,01,49,14.40
2006,08,06,01,50,14.30
2006,08,06,01,51,14.30
2006,08,06,01,52,14.30
2006,08,06,01,53,14.30
2006,08,06,01,54,14.20
2006,08,06,01,55,14.20
2006,08,06,01,56,14.20
2006,08,06,01,57,14.20
2006,08,06,01,58,14.20
2006,08,06,01,59,14.20
2006,08,06,02,00,14.20
2006,08,06,02,01,14.20
2006,08,06,02,02,14.20
2006,08,06,02,03,14.20
2006,08,06,02,04,14.20
2006,08,06,02,05,14.20
2006,08,06,02,06,14.20
2006,08,06,02,07,14.20
2006,08,06,02,08,14.20
2006,08,06,02,09,14.20
2006,08,06,02,10,14.20
2006,08,06,02,11,14.20
2006,08,06,02,12,14.20
2006,08,06,02,13,14.20
2006,08,06,02,14,14.20
2006,08,06,02,15,14.30
2006,08,06,02,16,14.20
2006,08,06,02,17,14.20
2006,08,06,02,18,14.20
2006,08,06,02,19,14.20
2006,08,06,02,20,14.20
2006,08,06,02,21,14.20
2006,08,06,02,22,14.20
2006,08,06,02,23,14.20
2006,08,06,02,24,14.20
2006,08,06,02,25,14.20
2006,08,06,02,26,14.20
2006,08,06,02,27,14.20
2006,08,06,02,28,14.20
2006,08,06,02,29,14.20
2006,08,06,02,30,14.20
2006,08,06,02,31,14.10
2006,08,06,02,32,14.10
2006,08,06,02,33,14.10
2006,08,06,02,34,14.00
2006,08,06,02,35,14.00
2006,08,06,02,36,14.00
2006,08,06,02,37,13.90
2006,08,06,02,38,13.90
2006,08,06,02,39,13.90
2006,08,06,02,40,13.80
2006,08,06,02,41,13.80
2006,08,06,02,42,13.70
2006,08,06,02,43,13.70
2006,08,06,02,44,13.70
2006,08,06,02,45,13.60
2006,08,06,02,46,13.60
2006,08,06,02,47,13.60
2006,08,06,02,48,13.50
2006,08,06,02,49,13.50
2006,08,06,02,50,13.40
2006,08,06,02,51,13.40
2006,08,06,02,52,13.40
2006,08,06,02,53,13.30
2006,08,06,02,54,13.30
2006,08,06,02,55,13.30
2006,08,06,02,56,13.30
2006,08,06,02,57,13.30
2006,08,06,02,58,13.30
2006,08,06,02,59,13.30
2006,08,06,03,00,13.30
2006,08,06,03,01,13.20
2006,08,06,03,02,13.20
2006,08,06,03,03,13.20
2006,08,06,03,04,13.20
2006,08,06,03,05,13.20
2006,08,06,03,06,13.10
2006,08,06,03,07,13.10
2006,08,06,03,08,13.10
2006,08,06,03,09,13.10
2006,08,06,03,10,13.10
2006,08,06,03,11,13.10
2006,08,06,03,12,13.10
2006,08,06,03,13,13.10
2006,08,06,03,14,13.10
2006,08,06,03,15,13.00
2006,08,06,03,16,13.00
2006,08,06,03,17,13.00
2006,08,06,03,18,13.00
2006,08,06,03,19,13.00
2006,08,06,03,20,13.00
2006,08,06,03,21,13.00
2006,08,06,03,22,13.00
2006,08,06,03,23,13.00
2006,08,06,03,24,12.90
2006,08,06,03,25,12.90
2006,08,06,03,26,12.90
2006,08,06,03,27,12.90
2006,08,06,03,28,12.90
2006,08,06,03,29,12.90
2006,08,06,03,30,12.90
2006,08,06,03,31,12.90
2006,08,06,03,32,12.90
2006,08,06,03,33,12.80
2006,08,06,03,34,12.80
2006,08,06,03,35,12.80
2006,08,06,03,36,12.90
2006,08,06,03,37,12.90
2006,08,06,03,38,12.90
2006,08,06,03,39,12.80
2006,08,06,03,40,12.80
2006,08,06,03,41,12.80
2006,08,06,03,42,12.80
2006,08,06,03,43,12.80
2006,08,06,03,44,12.80
2006,08,06,03,45,12.80
2006,08,06,03,46,12.80
2006,08,06,03,47,12.80
2006,08,06,03,48,12.80
2006,08,06,03,49,12.80
2006,08,06,03,50,12.80
2006,08,06,03,51,12.80
2006,08,06,03,52,12.80
2006,08,06,03,53,12.80
2006,08,06,03,54,12.80
2006,08,06,03,55,12.80
2006,08,06,03,56,12.70
2006,08,06,03,57,12.70
2006,08,06,03,58,12.70
2006,08,06,03,59,12.80
2006,08,06,04,00,12.80
2006,08,06,04,01,12.80
2006,08,06,04,02,12.80
2006,08,06,04,03,12.80
2006,08,06,04,04,12.80
2006,08,06,04,05,12.80
2006,08,06,04,06,12.80
2006,08,06,04,07,12.80
2006,08,06,04,08,12.80
2006,08,06,04,09,12.80
2006,08,06,04,10,12.80
2006,08,06,04,11,12.80
2006,08,06,04,12,12.80
2006,08,06,04,13,12.80
2006,08,06,04,14,12.80
2006,08,06,04,15,12.80
2006,08,06,04,16,12.80
2006,08,06,04,17,12.80
2006,08,06,04,18,12.80
2006,08,06,04,19,12.80
2006,08,06,04,20,12.80
2006,08,06,04,21,12.80
2006,08,06,04,22,12.80
2006,08,06,04,23,12.80
2006,08,06,04,24,12.80
2006,08,06,04,25,12.80
2006,08,06,04,26,12.80
2006,08,06,04,27,12.80
2006,08,06,04,28,12.80
2006,08,06,04,29,12.80
2006,08,06,04,30,12.80
2006,08,06,04,31,12.80
2006,08,06,04,32,12.80
2006,08,06,04,33,12.80
2006,08,06,04,34,12.70
2006,08,06,04,35,12.70
2006,08,06,04,36,12.60
2006,08,06,04,37,12.60
2006,08,06,04,38,12.50
2006,08,06,04,39,12.50
2006,08,06,04,40,12.40
2006,08,06,04,41,12.40
2006,08,06,04,42,12.40
2006,08,06,04,43,12.30
2006,08,06,04,44,12.30
2006,08,06,04,45,12.30
2006,08,06,04,46,12.30
2006,08,06,04,47,12.20
2006,08,06,04,48,12.20
2006,08,06,04,49,12.20
2006,08,06,04,50,12.10
2006,08,06,04,51,12.10
2006,08,06,04,52,12.10
2006,08,06,04,53,12.10
2006,08,06,04,54,12.10
2006,08,06,04,55,12.00
2006,08,06,04,56,12.00
2006,08,06,04,57,12.00
2006,08,06,04,58,12.00
2006,08,06,04,59,12.00
2006,08,06,05,00,12.00
2006,08,06,05,01,12.00
2006,08,06,05,02,12.00
2006,08,06,05,03,12.00
2006,08,06,05,04,12.00
2006,08,06,05,05,12.00
2006,08,06,05,06,12.00
2006,08,06,05,07,12.00
2006,08,06,05,08,11.90
2006,08,06,05,09,11.90
2006,08,06,05,10,11.90
2006,08,06,05,11,11.90
2006,08,06,05,12,11.90
2006,08,06,05,13,11.90
2006,08,06,05,14,12.00
2006,08,06,05,15,12.00
2006,08,06,05,16,12.00
2006,08,06,05,17,12.00
2006,08,06,05,18,12.00
2006,08,06,05,19,12.00
2006,08,06,05,20,12.00
2006,08,06,05,21,12.00
2006,08,06,05,22,12.00
2006,08,06,05,23,12.00
2006,08,06,05,24,11.90
2006,08,06,05,25,11.90
2006,08,06,05,26,11.90
2006,08,06,05,27,11.90
2006,08,06,05,28,11.90
2006,08,06,05,29,11.90
2006,08,06,05,30,11.90
2006,08,06,05,31,11.80
2006,08,06,05,32,11.80
2006,08,06,05,33,11.80
2006,08,06,05,34,11.80
2006,08,06,05,35,11.80
2006,08,06,05,36,11.80
2006,08,06,05,37,11.80
2006,08,06,05,38,11.80
2006,08,06,05,39,11.80
2006,08,06,05,40,11.80
2006,08,06,05,41,11.80
2006,08,06,05,42,11.70
2006,08,06,05,43,11.70
2006,08,06,05,44,11.70
2006,08,06,05,45,11.60
2006,08,06,05,46,11.60
2006,08,06,05,47,11.60
2006,08,06,05,48,11.60
2006,08,06,05,49,11.60
2006,08,06,05,50,11.60
2006,08,06,05,51,11.60
2006,08,06,05,52,11.60
2006,08,06,05,53,11.60
2006,08,06,05,54,11.60
2006,08,06,05,55,11.60
2006,08,06,05,56,11.60
2006,08,06,05,57,11.60
2006,08,06,05,58,11.60
2006,08,06,05,59,11.60
2006,08,06,06,00,11.60
2006,08,06,06,01,11.60
2006,08,06,06,02,11.60
2006,08,06,06,03,11.60
2006,08,06,06,04,11.60
2006,08,06,06,05,11.60
2006,08,06,06,06,11.60
2006,08,06,06,07,11.60
2006,08,06,06,08,11.60
2006,08,06,06,09,11.60
2006,08,06,06,10,11.60
2006,08,06,06,11,11.60
2006,08,06,06,12,11.60
2006,08,06,06,13,11.60
2006,08,06,06,14,11.60
2006,08,06,06,15,11.60
2006,08,06,06,16,11.60
2006,08,06,06,17,11.50
2006,08,06,06,18,11.40
2006,08,06,06,19,11.40
2006,08,06,06,20,11.40
2006,08,06,06,21,11.40
2006,08,06,06,22,11.40
2006,08,06,06,23,11.40
2006,08,06,06,24,11.40
2006,08,06,06,25,11.40
2006,08,06,06,26,11.40
2006,08,06,06,27,11.40
2006,08,06,06,28,11.40
2006,08,06,06,29,11.40
2006,08,06,06,30,11.40
2006,08,06,06,31,11.40
2006,08,06,06,32,11.50
2006,08,06,06,33,11.60
2006,08,06,06,34,11.60
2006,08,06,06,35,11.60
2006,08,06,06,36,11.60
2006,08,06,06,37,11.60
2006,08,06,06,38,11.60
2006,08,06,06,39,11.60
2006,08,06,06,40,11.70
2006,08,06,06,41,11.70
2006,08,06,06,42,11.80
2006,08,06,06,43,11.80
2006,08,06,06,44,11.80
2006,08,06,06,45,11.90
2006,08,06,06,46,12.00
2006,08,06,06,47,12.10
2006,08,06,06,48,12.10
2006,08,06,06,49,12.20
2006,08,06,06,50,12.30
2006,08,06,06,51,12.30
2006,08,06,06,52,12.30
2006,08,06,06,53,12.30
2006,08,06,06,54,12.40
2006,08,06,06,55,12.40
2006,08,06,06,56,12.50
2006,08,06,06,57,12.50
2006,08,06,06,58,12.50
2006,08,06,06,59,12.60
2006,08,06,07,00,12.60
2006,08,06,07,01,12.60
2006,08,06,07,02,12.70
2006,08,06,07,03,12.70
2006,08,06,07,04,12.70
2006,08,06,07,05,12.80
2006,08,06,07,06,12.80
2006,08,06,07,07,12.80
2006,08,06,07,08,12.90
2006,08,06,07,09,12.90
2006,08,06,07,10,12.90
2006,08,06,07,11,13.00
2006,08,06,07,12,13.10
2006,08,06,07,13,13.10
2006,08,06,07,14,13.20
2006,08,06,07,15,13.20
2006,08,06,07,16,13.30
2006,08,06,07,17,13.40
2006,08,06,07,18,13.50
2006,08,06,07,19,13.60
2006,08,06,07,20,13.70
2006,08,06,07,21,13.90
2006,08,06,07,22,13.90
2006,08,06,07,23,14.10
2006,08,06,07,24,14.30
2006,08,06,07,25,14.40
2006,08,06,07,26,14.50
2006,08,06,07,27,14.80
2006,08,06,07,28,14.90
2006,08,06,07,29,15.00
2006,08,06,07,30,15.10
2006,08,06,07,31,15.20
2006,08,06,07,32,15.30
2006,08,06,07,33,15.40
2006,08,06,07,34,15.40
2006,08,06,07,35,15.50
2006,08,06,07,36,15.60
2006,08,06,07,37,15.70
2006,08,06,07,38,15.80
2006,08,06,07,39,16.00
2006,08,06,07,40,16.10
2006,08,06,07,41,16.10
2006,08,06,07,42,16.20
2006,08,06,07,43,16.20
2006,08,06,07,44,16.20
2006,08,06,07,45,16.30
2006,08,06,07,46,16.40
2006,08,06,07,47,16.40
2006,08,06,07,48,16.40
2006,08,06,07,49,16.40
2006,08,06,07,50,16.40
2006,08,06,07,51,16.50
2006,08,06,07,52,16.60
2006,08,06,07,53,16.60
2006,08,06,07,54,16.60
2006,08,06,07,55,16.60
2006,08,06,07,56,16.70
2006,08,06,07,57,16.80
2006,08,06,07,58,16.90
2006,08,06,07,59,17.00
2006,08,06,08,00,17.10
2006,08,06,08,01,17.20
2006,08,06,08,02,17.30
2006,08,06,08,03,17.30
2006,08,06,08,04,17.30
2006,08,06,08,05,17.30
2006,08,06,08,06,17.30
2006,08,06,08,07,17.30
2006,08,06,08,08,17.30
2006,08,06,08,09,17.30
2006,08,06,08,10,17.30
2006,08,06,08,11,17.30
2006,08,06,08,12,17.30
2006,08,06,08,13,17.30
2006,08,06,08,14,17.30
2006,08,06,08,15,17.30
2006,08,06,08,16,17.30
2006,08,06,08,17,17.30
2006,08,06,08,18,17.40
2006,08,06,08,19,17.50
2006,08,06,08,20,17.60
2006,08,06,08,21,17.70
2006,08,06,08,22,17.80
2006,08,06,08,23,17.90
2006,08,06,08,24,18.00
2006,08,06,08,25,18.10
2006,08,06,08,26,18.20
2006,08,06,08,27,18.20
2006,08,06,08,28,18.30
2006,08,06,08,29,18.30
2006,08,06,08,30,18.30
2006,08,06,08,31,18.40
2006,08,06,08,32,18.50
2006,08,06,08,33,18.50
2006,08,06,08,34,18.60
2006,08,06,08,35,18.60
2006,08,06,08,36,18.70
2006,08,06,08,37,18.80
2006,08,06,08,38,18.90
2006,08,06,08,39,18.90
2006,08,06,08,40,18.90
2006,08,06,08,41,19.10
2006,08,06,08,42,19.10
2006,08,06,08,43,19.20
2006,08,06,08,44,19.30
2006,08,06,08,45,19.30
2006,08,06,08,46,19.30
2006,08,06,08,47,19.30
2006,08,06,08,48,19.30
2006,08,06,08,49,19.40
2006,08,06,08,50,19.40
2006,08,06,08,51,19.50
2006,08,06,08,52,19.60
2006,08,06,08,53,19.70
2006,08,06,08,54,19.80
2006,08,06,08,55,19.90
2006,08,06,08,56,19.90
2006,08,06,08,57,19.90
2006,08,06,08,58,19.90
2006,08,06,08,59,19.90
2006,08,06,09,00,19.90
2006,08,06,09,01,19.90
2006,08,06,09,02,19.90
2006,08,06,09,03,19.80
2006,08,06,09,04,19.90
2006,08,06,09,05,19.90
2006,08,06,09,06,19.90
2006,08,06,09,07,19.90
2006,08,06,09,08,20.00
2006,08,06,09,09,20.10
2006,08,06,09,10,20.20
2006,08,06,09,11,20.20
2006,08,06,09,12,20.40
2006,08,06,09,13,20.50
2006,08,06,09,14,20.60
2006,08,06,09,15,20.60
2006,08,06,09,16,20.60
2006,08,06,09,17,20.70
2006,08,06,09,18,20.70
2006,08,06,09,19,20.80
2006,08,06,09,20,20.90
2006,08,06,09,21,20.80
2006,08,06,09,22,20.80
2006,08,06,09,23,20.80
2006,08,06,09,24,20.80
2006,08,06,09,25,21.00
2006,08,06,09,26,21.00
2006,08,06,09,27,21.10
2006,08,06,09,28,21.20
2006,08,06,09,29,21.20
2006,08,06,09,30,21.30
2006,08,06,09,31,21.30
2006,08,06,09,32,21.30
2006,08,06,09,33,21.50
2006,08,06,09,34,21.40
2006,08,06,09,35,21.40
2006,08,06,09,36,21.40
2006,08,06,09,37,21.30
2006,08,06,09,38,21.40
2006,08,06,09,39,21.40
2006,08,06,09,40,21.50
2006,08,06,09,41,21.50
2006,08,06,09,42,21.40
2006,08,06,09,43,21.30
2006,08,06,09,44,21.30
2006,08,06,09,45,21.30
2006,08,06,09,46,21.30
2006,08,06,09,47,21.30
2006,08,06,09,48,21.30
2006,08,06,09,49,21.30
2006,08,06,09,50,21.40
2006,08,06,09,51,21.50
2006,08,06,09,52,21.60
2006,08,06,09,53,21.60
2006,08,06,09,54,21.70
2006,08,06,09,55,21.80
2006,08,06,09,56,21.90
2006,08,06,09,57,21.90
2006,08,06,09,58,21.90
2006,08,06,09,59,21.90
2006,08,06,10,00,21.90
2006,08,06,10,01,21.80
2006,08,06,10,02,21.80
2006,08,06,10,03,21.60
2006,08,06,10,04,21.60
2006,08,06,10,05,21.60
2006,08,06,10,06,21.60
2006,08,06,10,07,21.60
2006,08,06,10,08,21.70
2006,08,06,10,09,21.90
2006,08,06,10,10,22.00
2006,08,06,10,11,22.00
2006,08,06,10,12,22.20
2006,08,06,10,13,22.20
2006,08,06,10,14,22.30
2006,08,06,10,15,22.40
2006,08,06,10,16,22.40
2006,08,06,10,17,22.40
2006,08,06,10,18,22.50
2006,08,06,10,19,22.50
2006,08,06,10,20,22.50
2006,08,06,10,21,22.50
2006,08,06,10,22,22.30
2006,08,06,10,23,22.20
2006,08,06,10,24,22.10
2006,08,06,10,25,22.00
2006,08,06,10,26,21.90
2006,08,06,10,27,21.80
2006,08,06,10,28,21.70
2006,08,06,10,29,21.70
2006,08,06,10,30,21.80
2006,08,06,10,31,21.90
2006,08,06,10,32,21.90
2006,08,06,10,33,21.90
2006,08,06,10,34,21.70
2006,08,06,10,35,21.70
2006,08,06,10,36,21.70
2006,08,06,10,37,21.70
2006,08,06,10,38,21.60
2006,08,06,10,39,21.60
2006,08,06,10,40,21.60
2006,08,06,10,41,21.60
2006,08,06,10,42,21.70
2006,08,06,10,43,21.70
2006,08,06,10,44,21.70
2006,08,06,10,45,21.90
2006,08,06,10,46,21.90
2006,08,06,10,47,22.00
2006,08,06,10,48,22.00
2006,08,06,10,49,22.10
2006,08,06,10,50,22.10
2006,08,06,10,51,22.20
2006,08,06,10,52,22.30
2006,08,06,10,53,22.50
2006,08,06,10,54,22.60
2006,08,06,10,55,22.60
2006,08,06,10,56,22.60
2006,08,06,10,57,22.60
2006,08,06,10,58,22.60
2006,08,06,10,59,22.50
2006,08,06,11,00,22.30
2006,08,06,11,01,22.30
2006,08,06,11,02,22.20
2006,08,06,11,03,22.20
2006,08,06,11,04,22.20
2006,08,06,11,05,22.30
2006,08,06,11,06,22.30
2006,08,06,11,07,22.20
2006,08,06,11,08,22.10
2006,08,06,11,09,22.10
2006,08,06,11,10,22.20
2006,08,06,11,11,22.20
2006,08,06,11,12,22.20
2006,08,06,11,13,22.30
2006,08,06,11,14,22.40
2006,08,06,11,15,22.50
2006,08,06,11,16,22.60
2006,08,06,11,17,22.80
2006,08,06,11,18,22.90
2006,08,06,11,19,22.90
2006,08,06,11,20,22.90
2006,08,06,11,21,22.90
2006,08,06,11,22,22.90
2006,08,06,11,23,23.10
2006,08,06,11,24,23.20
2006,08,06,11,25,23.10
2006,08,06,11,26,23.00
2006,08,06,11,27,22.90
2006,08,06,11,28,22.80
2006,08,06,11,29,22.60
2006,08,06,11,30,22.50
2006,08,06,11,31,22.30
2006,08,06,11,32,22.20
2006,08,06,11,33,22.00
2006,08,06,11,34,21.80
2006,08,06,11,35,21.80
2006,08,06,11,36,21.80
2006,08,06,11,37,21.90
2006,08,06,11,38,21.80
2006,08,06,11,39,21.70
2006,08,06,11,40,21.70
2006,08,06,11,41,21.70
2006,08,06,11,42,21.70
2006,08,06,11,43,21.60
2006,08,06,11,44,21.60
2006,08,06,11,45,21.60
2006,08,06,11,46,21.60
2006,08,06,11,47,21.60
2006,08,06,11,48,21.70
2006,08,06,11,49,21.90
2006,08,06,11,50,21.90
2006,08,06,11,51,21.90
2006,08,06,11,52,21.80
2006,08,06,11,53,21.60
2006,08,06,11,54,21.60
2006,08,06,11,55,21.60
2006,08,06,11,56,21.60
2006,08,06,11,57,21.70
2006,08,06,11,58,21.70
2006,08,06,11,59,21.70
2006,08,06,12,00,21.70
2006,08,06,12,01,21.70
2006,08,06,12,02,21.60
2006,08,06,12,03,21.70
2006,08,06,12,04,21.80
2006,08,06,12,05,21.80
2006,08,06,12,06,21.90
2006,08,06,12,07,21.90
2006,08,06,12,08,22.00
2006,08,06,12,09,22.10
2006,08,06,12,10,22.20
2006,08,06,12,11,22.20
2006,08,06,12,12,22.20
2006,08,06,12,13,22.30
2006,08,06,12,14,22.40
2006,08,06,12,15,22.50
2006,08,06,12,16,22.50
2006,08,06,12,17,22.50
2006,08,06,12,18,22.60
2006,08,06,12,19,22.70
2006,08,06,12,20,22.80
2006,08,06,12,21,22.80
2006,08,06,12,22,22.70
2006,08,06,12,23,22.70
2006,08,06,12,24,22.70
2006,08,06,12,25,22.70
2006,08,06,12,26,22.60
2006,08,06,12,27,22.80
2006,08,06,12,28,22.90
2006,08,06,12,29,23.10
2006,08,06,12,30,23.10
2006,08,06,12,31,23.10
2006,08,06,12,32,23.00
2006,08,06,12,33,22.90
2006,08,06,12,34,22.80
2006,08,06,12,35,22.70
2006,08,06,12,36,22.70
2006,08,06,12,37,22.70
2006,08,06,12,38,22.70
2006,08,06,12,39,22.70
2006,08,06,12,40,22.70
2006,08,06,12,41,22.60
2006,08,06,12,42,22.50
2006,08,06,12,43,22.40
2006,08,06,12,44,22.50
2006,08,06,12,45,22.50
2006,08,06,12,46,22.60
2006,08,06,12,47,22.60
2006,08,06,12,48,22.60
2006,08,06,12,49,22.70
2006,08,06,12,50,22.80
2006,08,06,12,51,22.90
2006,08,06,12,52,22.90
2006,08,06,12,53,22.90
2006,08,06,12,54,22.90
2006,08,06,12,55,22.90
2006,08,06,12,56,22.90
2006,08,06,12,57,22.90
2006,08,06,12,58,23.00
2006,08,06,12,59,23.10
2006,08,06,13,00,23.20
2006,08,06,13,01,23.20
2006,08,06,13,02,23.30
2006,08,06,13,03,23.30
2006,08,06,13,04,23.20
2006,08,06,13,05,23.10
2006,08,06,13,06,23.00
2006,08,06,13,07,23.00
2006,08,06,13,08,23.10
2006,08,06,13,09,23.20
2006,08,06,13,10,23.20
2006,08,06,13,11,23.20
2006,08,06,13,12,23.20
2006,08,06,13,13,23.20
2006,08,06,13,14,23.20
2006,08,06,13,15,23.10
2006,08,06,13,16,23.10
2006,08,06,13,17,23.30
2006,08,06,13,18,23.40
2006,08,06,13,19,23.50
2006,08,06,13,20,23.60
2006,08,06,13,21,23.90
2006,08,06,13,22,24.00
2006,08,06,13,23,24.10
2006,08,06,13,24,24.00
2006,08,06,13,25,23.90
2006,08,06,13,26,23.80
2006,08,06,13,27,23.70
2006,08,06,13,28,23.70
2006,08,06,13,29,23.60
2006,08,06,13,30,23.70
2006,08,06,13,31,23.70
2006,08,06,13,32,23.80
2006,08,06,13,33,23.90
2006,08,06,13,34,23.90
2006,08,06,13,35,24.00
2006,08,06,13,36,24.00
2006,08,06,13,37,23.80
2006,08,06,13,38,23.90
2006,08,06,13,39,23.90
2006,08,06,13,40,23.90
2006,08,06,13,41,24.00
2006,08,06,13,42,23.90
2006,08,06,13,43,23.90
2006,08,06,13,44,23.70
2006,08,06,13,45,23.50
2006,08,06,13,46,23.30
2006,08,06,13,47,23.40
2006,08,06,13,48,23.40
2006,08,06,13,49,23.30
2006,08,06,13,50,23.30
2006,08,06,13,51,23.10
2006,08,06,13,52,23.20
2006,08,06,13,53,23.20
2006,08,06,13,54,23.30
2006,08,06,13,55,23.40
2006,08,06,13,56,23.40
2006,08,06,13,57,23.40
2006,08,06,13,58,23.80
2006,08,06,13,59,23.80
2006,08,06,14,00,23.80
2006,08,06,14,01,23.70
2006,08,06,14,02,23.70
2006,08,06,14,03,23.80
2006,08,06,14,04,23.90
2006,08,06,14,05,23.90
2006,08,06,14,06,23.90
2006,08,06,14,07,23.90
2006,08,06,14,08,23.80
2006,08,06,14,09,23.80
2006,08,06,14,10,23.90
2006,08,06,14,11,23.90
2006,08,06,14,12,23.90
2006,08,06,14,13,23.90
2006,08,06,14,14,23.90
2006,08,06,14,15,23.70
2006,08,06,14,16,23.50
2006,08,06,14,17,23.40
2006,08,06,14,18,23.30
2006,08,06,14,19,23.30
2006,08,06,14,20,23.40
2006,08,06,14,21,23.40
2006,08,06,14,22,23.30
2006,08,06,14,23,23.20
2006,08,06,14,24,23.30
2006,08,06,14,25,23.30
2006,08,06,14,26,23.10
2006,08,06,14,27,23.10
2006,08,06,14,28,23.10
2006,08,06,14,29,23.20
2006,08,06,14,30,23.20
2006,08,06,14,31,23.20
2006,08,06,14,32,23.00
2006,08,06,14,33,22.90
2006,08,06,14,34,22.90
2006,08,06,14,35,22.80
2006,08,06,14,36,22.80
2006,08,06,14,37,22.80
2006,08,06,14,38,22.90
2006,08,06,14,39,22.90
2006,08,06,14,40,22.90
2006,08,06,14,41,22.80
2006,08,06,14,42,22.70
2006,08,06,14,43,22.60
2006,08,06,14,44,22.40
2006,08,06,14,45,22.40
2006,08,06,14,46,22.40
2006,08,06,14,47,22.40
2006,08,06,14,48,22.50
2006,08,06,14,49,22.50
2006,08,06,14,50,22.60
2006,08,06,14,51,22.60
2006,08,06,14,52,22.60
2006,08,06,14,53,22.60
2006,08,06,14,54,22.80
2006,08,06,14,55,22.90
2006,08,06,14,56,22.90
2006,08,06,14,57,22.70
2006,08,06,14,58,22.60
2006,08,06,14,59,22.60
2006,08,06,15,00,22.60
2006,08,06,15,01,22.70
2006,08,06,15,02,22.70
2006,08,06,15,03,22.80
2006,08,06,15,04,22.90
2006,08,06,15,05,22.90
2006,08,06,15,06,22.90
2006,08,06,15,07,22.90
2006,08,06,15,08,22.90
2006,08,06,15,09,22.70
2006,08,06,15,10,22.60
2006,08,06,15,11,22.40
2006,08,06,15,12,22.40
2006,08,06,15,13,22.50
2006,08,06,15,14,22.60
2006,08,06,15,15,22.70
2006,08,06,15,16,22.60
2006,08,06,15,17,22.60
2006,08,06,15,18,22.50
2006,08,06,15,19,22.40
2006,08,06,15,20,22.30
2006,08,06,15,21,22.30
2006,08,06,15,22,22.30
2006,08,06,15,23,22.60
2006,08,06,15,24,22.40
2006,08,06,15,25,22.50
2006,08,06,15,26,22.50
2006,08,06,15,27,22.40
2006,08,06,15,28,22.40
2006,08,06,15,29,22.40
2006,08,06,15,30,22.30
2006,08,06,15,31,22.20
2006,08,06,15,32,22.10
2006,08,06,15,33,22.10
2006,08,06,15,34,22.20
2006,08,06,15,35,22.30
2006,08,06,15,36,22.20
2006,08,06,15,37,22.00
2006,08,06,15,38,21.90
2006,08,06,15,39,21.90
2006,08,06,15,40,21.80
2006,08,06,15,41,21.70
2006,08,06,15,42,21.70
2006,08,06,15,43,21.60
2006,08,06,15,44,21.60
2006,08,06,15,45,21.40
2006,08,06,15,46,21.30
2006,08,06,15,47,21.30
2006,08,06,15,48,21.30
2006,08,06,15,49,21.20
2006,08,06,15,50,21.20
2006,08,06,15,51,21.10
2006,08,06,15,52,20.90
2006,08,06,15,53,20.80
2006,08,06,15,54,20.70
2006,08,06,15,55,20.60
2006,08,06,15,56,20.60
2006,08,06,15,57,20.50
2006,08,06,15,58,20.50
2006,08,06,15,59,20.40
2006,08,06,16,00,20.30
2006,08,06,16,01,20.20
2006,08,06,16,02,20.30
2006,08,06,16,03,20.20
2006,08,06,16,04,20.30
2006,08,06,16,05,20.30
2006,08,06,16,06,20.20
2006,08,06,16,07,20.30
2006,08,06,16,08,20.40
2006,08,06,16,09,20.50
2006,08,06,16,10,20.60
2006,08,06,16,11,20.60
2006,08,06,16,12,20.60
2006,08,06,16,13,20.30
2006,08,06,16,14,20.10
2006,08,06,16,15,19.90
2006,08,06,16,16,19.80
2006,08,06,16,17,19.80
2006,08,06,16,18,19.80
2006,08,06,16,19,19.90
2006,08,06,16,20,20.00
2006,08,06,16,21,20.20
2006,08,06,16,22,20.50
2006,08,06,16,23,20.50
2006,08,06,16,24,20.60
2006,08,06,16,25,20.80
2006,08,06,16,26,20.90
2006,08,06,16,27,21.00
2006,08,06,16,28,21.00
2006,08,06,16,29,20.90
2006,08,06,16,30,21.00
2006,08,06,16,31,21.00
2006,08,06,16,32,21.10
2006,08,06,16,33,21.40
2006,08,06,16,34,21.50
2006,08,06,16,35,21.60
2006,08,06,16,36,21.80
2006,08,06,16,37,21.90
2006,08,06,16,38,21.90
2006,08,06,16,39,21.90
2006,08,06,16,40,21.90
2006,08,06,16,41,21.90
2006,08,06,16,42,22.00
2006,08,06,16,43,22.10
2006,08,06,16,44,22.20
2006,08,06,16,45,22.20
2006,08,06,16,46,22.40
2006,08,06,16,47,22.40
2006,08,06,16,48,22.40
2006,08,06,16,49,22.50
2006,08,06,16,50,22.50
2006,08,06,16,51,22.60
2006,08,06,16,52,22.60
2006,08,06,16,53,22.70
2006,08,06,16,54,22.80
2006,08,06,16,55,22.80
2006,08,06,16,56,22.80
2006,08,06,16,57,22.90
2006,08,06,16,58,22.90
2006,08,06,16,59,23.20
2006,08,06,17,00,23.20
2006,08,06,17,01,23.30
2006,08,06,17,02,23.30
2006,08,06,17,03,23.30
2006,08,06,17,04,23.30
2006,08,06,17,05,23.30
2006,08,06,17,06,23.30
2006,08,06,17,07,23.30
2006,08,06,17,08,23.30
2006,08,06,17,09,23.30
2006,08,06,17,10,23.30
2006,08,06,17,11,23.30
2006,08,06,17,12,23.40
2006,08,06,17,13,23.60
2006,08,06,17,14,23.70
2006,08,06,17,15,23.90
2006,08,06,17,16,24.00
2006,08,06,17,17,24.10
2006,08,06,17,18,24.20
2006,08,06,17,19,24.20